This is the latest recevied weather packets stored in our database for station/object KG7KID-7. If no packets are shown the sender has not sent any weather packets the latest 10 day(s).
| Time | Temp. | Humidity | Pressure | Rain* | Wind** | Luminosity | Snow |
|---|---|---|---|---|---|---|---|
| 1778020314 | 20° C | 29% | 972 hPa | 0 mm | - | - | - |
| 1778020194 | 20° C | 30% | 972 hPa | 0 mm | - | - | - |
| 1778020010 | 20° C | 30% | 972 hPa | 0 mm | - | - | - |
| 1778019711 | 20° C | 30% | 971.8 hPa | 0 mm | - | - | - |
| 1778019411 | 20° C | 30% | 972 hPa | 0 mm | - | - | - |
| 1778019251 | 20° C | 30% | 972.1 hPa | 0 mm | - | - | - |
| 1778019110 | 20° C | 30% | 972.1 hPa | 0 mm | - | - | - |
| 1778018810 | 20.56° C | 30% | 972.2 hPa | 0 mm | - | - | - |
| 1778018197 | 20° C | 31% | 972.2 hPa | 0 mm | - | - | - |
| 1778017697 | 20° C | 30% | 972.4 hPa | 0 mm | - | - | - |
| 1778015512 | 20° C | 28% | 972.8 hPa | 0 mm | - | - | - |
| 1778015455 | 20° C | 28% | 972.8 hPa | 0 mm | - | - | - |
| 1778014854 | 20.56° C | 30% | 972.9 hPa | 0 mm | - | - | - |
| 1778014554 | 20.56° C | 33% | 972.9 hPa | 0 mm | - | - | - |
| 1778014253 | 20.56° C | 31% | 972.9 hPa | 0 mm | - | - | - |
| 1778014000 | 20° C | 32% | 972.8 hPa | 0 mm | - | - | - |
| 1778013954 | 20° C | 32% | 972.8 hPa | 0 mm | - | - | - |
| 1778013706 | 20° C | 30% | 972.8 hPa | 0 mm | - | - | - |
| 1778013654 | 20° C | 30% | 972.8 hPa | 0 mm | - | - | - |
| 1778013054 | 20° C | 34% | 972.9 hPa | 0 mm | - | - | - |
| 1778012810 | 19.44° C | 32% | 972.9 hPa | 0 mm | - | - | - |
| 1778012754 | 19.44° C | 32% | 972.9 hPa | 0 mm | - | - | - |
| 1778012154 | 19.44° C | 35% | 973 hPa | 0 mm | - | - | - |
| 1778011854 | 18.89° C | 36% | 973.1 hPa | 0 mm | - | - | - |
| 1778011408 | 18.89° C | 39% | 973 hPa | 0 mm | - | - | - |
* Rain latest hour (hover to see other rain measurements)
** Current wind speed in m/s (hover to see current wind gust speed)